Zurück zum Katalog

DELTA 1 R/B

AktivHEO
NORAD 4377·ROCKET BODY·🇺🇸 United States

Gestartet Apr 23, 1970 von Cape Canaveral Space Force Station

Loading…

Nächste Überflüge (nächste 24 Stunden)

TLE

AktuellSource: Space-Track

Epoche: Sep 14, 2026, 11:14 UTC

1 04377U 70032B   26257.46808917  .00012077  00000-0  12249-2 0  9995
2 04377  26.7142 314.3989 5680527  81.2734 335.8542  4.56229346637704

Verfolge DELTA 1 R/B in Echtzeit mit AllMySat

Download on the App Store